Location: CAO
(44.5093°N, 80.3921°W)
Time: 09:05:05
(UTC-05:00)

ARIANE 6 FM1 Upper Stage - Pass Details

Date: 21 January 2026
Orbit: 522 x 609 km, 62.0° (Epoch: 8 February)

Event Time Altitude Azimuth Distance (km) Brightness Sun altitude
Rises 20:35:10 0° 249° (WSW) 2,701 6.9 -35.3°
Reaches altitude 10° 20:37:39 10° 261° (W) 1,797 6.0 -35.7°
Enters shadow 20:38:07 12° 265° (W) 1,642 5.7 -35.8°
